This is the latest recevied weather packets stored in our database for station/object N3DOU-1. If no packets are shown the sender has not sent any weather packets the latest 10 day(s).
| Time | Temp. | Humidity | Pressure | Rain* | Wind** | Luminosity | Snow |
|---|---|---|---|---|---|---|---|
| 1778183784 | 18.33° C | 44% | 1008.8 hPa | 0 mm | - | - | - |
| 1778182886 | 18.33° C | 48% | 1008.7 hPa | 0 mm | - | - | - |
| 1778181985 | 18.33° C | 46% | 1009 hPa | 0 mm | - | - | - |
| 1778181084 | 17.78° C | 50% | 1009.2 hPa | 0 mm | - | - | - |
| 1778180184 | 17.78° C | 48% | 1009.3 hPa | 0 mm | - | - | - |
| 1778179284 | 17.78° C | 50% | 1009.4 hPa | 0 mm | - | - | - |
| 1778178384 | 17.78° C | 47% | 1009.9 hPa | 0 mm | - | - | - |
| 1778177485 | 16.67° C | 48% | 1010.1 hPa | 0 mm | - | - | - |
| 1778176585 | 16.67° C | 54% | 1010.4 hPa | 0 mm | - | - | - |
| 1778175685 | 16.11° C | 61% | 1010.2 hPa | 0 mm | - | - | - |
| 1778174783 | 15° C | 57% | 1010.4 hPa | 0 mm | - | - | - |
| 1778173884 | 14.44° C | 61% | 1010.9 hPa | 0 mm | - | - | - |
| 1778172982 | 14.44° C | 59% | 1011 hPa | 0 mm | - | - | - |
| 1778172084 | 14.44° C | 64% | 1011.4 hPa | 0 mm | - | - | - |
| 1778171184 | 14.44° C | 62% | 1011.6 hPa | 0 mm | - | - | - |
| 1778170285 | 13.89° C | 61% | 1011.8 hPa | 0 mm | - | - | - |
| 1778168484 | 13.89° C | 63% | 1011.9 hPa | 0 mm | - | - | - |
| 1778167583 | 13.33° C | 66% | 1012.1 hPa | 0 mm | - | - | - |
| 1778166686 | 13.33° C | 66% | 1012.2 hPa | 0 mm | - | - | - |
| 1778165783 | 12.78° C | 65% | 1012.4 hPa | 0 mm | - | - | - |
| 1778164886 | 13.33° C | 69% | 1012.4 hPa | 0 mm | - | - | - |
| 1778163984 | 12.78° C | 68% | 1012.4 hPa | 0 mm | - | - | - |
| 1778163084 | 12.78° C | 66% | 1012.5 hPa | 0 mm | - | - | - |
| 1778162185 | 12.78° C | 71% | 1012.7 hPa | 0 mm | - | - | - |
| 1778161286 | 12.78° C | 74% | 1012.6 hPa | 0 mm | - | - | - |
* Rain latest hour (hover to see other rain measurements)
** Current wind speed in m/s (hover to see current wind gust speed)